Other Public Products
Issued by NWS Charleston, SC

Current Version | Previous Version | Graphics & Text | Print | Product List | Glossary On
Versions: 1 2 3 4 5 6 7 8 9 10 11 12 13 14 15 16 17 18 19 20 21 22 23 24 25 26 27 28 29 30 31 32 33 34 35 36 37 38 39 40 41 42 43 44 45 46 47 48 49 50
505 FPUS82 KCHS 261112 OPUCHS TEST...KCHS/KSAV Gateway Observations...TEST National Weather Service Charleston SC 700 AM EDT SUN MAR 26 2017 NOTE: "fair" indicates few or no clouds below 12,000 feet with no significant weather and/or obstructions to visibility. SCZ050-WAZ558-NCZ071-TXZ119-213-PAZ071-DCZ001-FLZ074-172-MI076- NYZ176-178-MAZ016-IL014-TNZ027-NJZ106-GAZ044-MD014-261200- ...Gateway Observations for Charleston International... CITY SKY/WX TMP DP RH WIND PRES REMARKS Chas Airport CLOUDY 55 54 96 CALM 30.18R Seattle CLOUDY 44 39 82 E7 29.92F Charlotte MOCLDY 56 52 86 SE6 30.18R Dallas DFW CLEAR 54 48 80 E7 29.85R Dallas Love CLEAR 56 48 74 SE7 29.87R Philladelphia CLOUDY 43 37 79 E14 30.38R Wash National CLOUDY 49 44 83 E10 30.29R Baltimore CLOUDY 46 40 79 E15 30.31R Miami MOCLDY 69 66 90 CALM 30.08R Detroit CLOUDY 40 36 86 NE7 30.05F WCI 35 Newark CLOUDY 40 33 76 NE12 30.43R WCI 33 Laguardia CLOUDY 40 32 73 NE20 30.43R WCI 30 J F K CLOUDY 39 35 86 NE12 30.43R WCI 32 Boston Logan PTCLDY 30 24 78 N9 30.52R WCI 22 Ft. Lauderdale MOCLDY 71 65 81 E8 30.07R Chicago O`Hare CLOUDY 48 45 89 NE6 29.85F FOG Chicago Midway LGT RAIN 50 49 96 E9 29.86F FOG Houston Bush MOCLDY 68 65 90 S3 29.90R Houston Hobby PTCLDY 67 66 97 S3 29.89S Nashville CLOUDY 58 56 93 S10 29.97S Atlanta PTCLDY 59 58 96 SE6 30.09R $$ GAZ044-118-TXZ119-213-NCZ071-DCZ001-MDZ014-506-PAZ021-071-NJZ106- NYZ176-178-MAZ106-OHZ011-021-055-MIZ076-KYZ091-ILZ014-INZ047- MNZ060-ONZ431-261200- ...Gateway Observations for Savannah International... CITY SKY/WX TMP DP RH WIND PRES REMARKS Savannah Arpt MOCLDY 59 54 83 S3 30.15S Atlanta PTCLDY 59 58 96 SE6 30.09R Charlotte MOCLDY 56 52 86 SE6 30.18R Dallas DFW CLEAR 54 48 80 E7 29.85R Houston Bush MOCLDY 68 65 90 S3 29.90R Wash National CLOUDY 49 44 83 E10 30.29R Wash Dulles CLOUDY 48 41 76 E12 30.28R Baltimore CLOUDY 46 40 79 E15 30.31R Philadelphia CLOUDY 43 37 79 E14 30.38R Newark CLOUDY 40 33 76 NE12 30.43R WCI 33 Laguardia CLOUDY 40 32 73 NE20 30.43R WCI 30 J F K CLOUDY 39 35 86 NE12 30.43R WCI 32 Boston PTCLDY 30 24 78 N9 30.52R WCI 22 Pittsburg MOCLDY 56 50 80 SE8 30.07S Akron MOCLDY 59 49 69 SE9 30.03S Cleveland PTCLDY 60 48 64 SE14 30.02F Cincinnati LGT RAIN 57 56 96 S7 29.98S Columbus CLOUDY 58 49 72 SW5 29.97R Detroit CLOUDY 40 36 86 NE7 30.05F WCI 35 Chicago O`Hare CLOUDY 48 45 89 NE6 29.85F FOG Minneapolis CLOUDY 36 33 89 NE6 29.94S WCI 31 Indianapolis LGT RAIN 56 55 97 SE9 29.90F Toronto Canada CLOUDY 36 32 87 E12 30.23F WCI 27 $$

USA.gov is the U.S. government's official web portal to all federal, state and local government web resources and services.